Terminal Aerodrome Forecast
Issued by NWS

Home | Current Version | Previous Version | Text Only | Print | Product List | Glossary On
Versions: 1 2 3 4 5 6 7 8 9 10 11 12 13 14 15 16 17 18 19 20 21 22 23 24 25 26 27 28 29 30
243
FTUS45 KBYZ 100520
TAFLVM
TAF
KLVM 100520Z 1006/1106 25025G35KT P6SM FEW200
     FM101100 24030G45KT P6SM FEW200
     FM102000 24020G35KT P6SM FEW200=

USA.gov is the U.S. government's official web portal to all federal, state and local government web resources and services.